1496343600.69,2850,21.25,74194.0,0.63,-31.85,-32.01,0,*78
1496343601.92,2851,21.25,74194.5,0.61,-31.73,-31.91,0,*78
1496343603.13,2852,21.25,74194.0,0.61,-31.67,-31.85,0,*7B
1496343604.36,2853,21.25,74194.5,0.61,-31.51,-31.73,0,*76
1496343605.57,2854,21.25,74188.5,0.61,-31.17,-31.51,0,*73
1496343606.8,2855,21.25,74188.0,0.61,-31.51,-31.73,0,*70
1496343608.01,2856,21.25,74188.5,0.61,-31.79,-32.07,0,*79
1496343609.19,2857,21.25,74190.5,0.61,-31.67,-32.01,0,*71
1496343610.43,2858,21.25,74190.5,0.61,-31.73,-32.07,0,*7D
1496343611.69,2859,21.25,74190.3,0.59,-32.07,-32.29,0,*7B
1496343612.9,2860,21.25,74194.0,0.61,-31.85,-32.13,0,*7A
1496343614.16,2861,21.25,74198.0,0.59,-31.95,-32.29,0,*78
1496343615.39,2862,21.25,74192.8,0.59,-31.95,-32.13,0,*72
1496343616.63,2863,21.25,74194.5,0.61,-31.73,-32.07,0,*75
1496343617.87,2864,21.25,74194.0,0.61,-31.73,-31.85,0,*7B
1496343619.07,2865,21.25,74196.0,0.59,-31.79,-32.13,0,*77
1496343620.28,2866,21.25,74198.3,0.61,-31.91,-32.23,0,*7A
1496343621.52,2867,21.25,74198.3,0.59,-32.13,-32.45,0,*79
1496343622.78,2868,21.25,74198.0,0.59,-31.95,-32.19,0,*72
1496343624.02,2869,21.25,74194.8,0.59,-31.79,-32.19,0,*71
1496343625.28,2870,21.25,74194.0,0.59,-31.95,-32.29,0,*78
1496343626.49,2871,21.25,74190.0,0.61,-31.73,-32.13,0,*73
1496343627.69,2872,21.25,74194.5,0.61,-31.91,-32.13,0,*7C
1496343628.95,2873,21.25,74196.8,0.59,-31.91,-32.29,0,*7F
1496343630.16,2874,21.25,74190.8,0.61,-31.85,-32.23,0,*7C
1496343631.42,2875,21.19,74180.3,0.59,-31.91,-32.19,0,*7A
1496343632.65,2876,21.25,74180.3,0.59,-31.91,-32.13,0,*73
1496343633.91,2877,21.19,74180.3,0.59,-31.91,-32.19,0,*78
1496343635.17,2878,21.25,74186.3,0.59,-31.95,-32.29,0,*70
1496343636.43,2879,21.25,74188.8,0.59,-31.91,-32.19,0,*76
1496343637.66,2880,21.25,74186.0,0.59,-31.45,-31.73,0,*76
1496343638.93,2881,21.25,74190.8,0.59,-31.57,-31.91,0,*78
1496343640.19,2882,21.25,74192.0,0.59,-31.61,-31.95,0,*7A
1496343641.45,2883,21.25,74188.8,0.59,-31.73,-31.95,0,*78
1496343642.71,2884,21.25,74186.5,0.59,-31.91,-32.29,0,*77
1496343643.94,2885,21.25,74188.3,0.59,-31.73,-32.13,0,*73
1496343645.18,2886,21.25,74190.0,0.59,-31.79,-32.07,0,*7F
1496343646.44,2887,21.25,74190.0,0.59,-31.57,-31.91,0,*7E
1496343647.67,2888,21.25,74188.8,0.59,-31.39,-31.79,0,*7F
1496343648.93,2889,21.25,74186.5,0.59,-31.61,-31.95,0,*71
1496343650.16,2890,21.25,74190.5,0.61,-31.51,-31.85,0,*70
1496343651.37,2891,21.25,74192.0,0.59,-31.79,-32.13,0,*7C
1496343652.61,2892,21.25,74192.5,0.61,-31.57,-32.07,0,*7D
1496343653.79,2893,21.19,74198.3,0.57,-31.67,-32.13,0,*7F
1496343654.99,2894,21.25,74202.3,0.57,-31.51,-32.01,0,*7E
1496343656.25,2895,21.25,74202.3,0.59,-31.61,-32.19,0,*7B
1496343657.52,2896,21.25,74200.8,0.59,-31.23,-31.91,0,*7D
1496343658.74,2897,21.25,74202.5,0.59,-31.39,-31.79,0,*71
1496343659.97,2898,21.19,74200.3,0.59,-31.39,-31.79,0,*7E
1496343661.18,2899,21.25,74196.8,0.61,-31.33,-31.73,0,*74
1496343662.44,2900,21.25,74198.5,0.59,-31.57,-31.91,0,*70
1496343663.68,2901,21.25,74196.5,0.59,-30.89,-31.45,0,*7A
1496343664.89,2902,21.25,74196.0,0.61,-30.89,-31.45,0,*72
1496343666.09,2903,21.25,74196.3,0.61,-31.01,-31.57,0,*71
1496343667.3,2904,21.19,74184.3,0.61,-31.39,-32.01,0,*7D
1496343668.53,2905,21.25,74178.5,0.59,-31.91,-32.35,0,*72
1496343669.77,2906,21.25,74170.5,0.61,-32.07,-32.63,0,*75
1496343671.0,2907,21.19,74174.8,0.61,-32.07,-32.63,0,*74
1496343672.25,2908,21.19,74186.0,0.61,-32.07,-32.75,0,*7C
1496343673.49,2909,21.25,74190.8,0.61,-32.07,-32.45,0,*7E
1496343674.73,2910,21.25,74186.3,0.59,-32.07,-32.51,0,*78
1496343675.96,2911,21.25,74178.5,0.59,-31.95,-32.35,0,*73
1496343677.18,2912,21.19,74166.0,0.61,-32.01,-32.45,0,*72
1496343678.44,2913,21.19,74176.3,0.59,-31.95,-32.45,0,*76
1496343679.68,2914,21.19,74180.3,0.61,-31.57,-31.91,0,*7E
1496343680.94,2915,21.25,74186.8,0.59,-31.57,-31.95,0,*70
1496343682.2,2916,21.19,74186.8,0.59,-31.61,-31.95,0,*76
1496343683.41,2917,21.25,74188.8,0.61,-31.33,-31.73,0,*73
1496343684.65,2918,21.19,74184.8,0.61,-31.23,-31.85,0,*74
1496343685.91,2919,21.25,74186.0,0.59,-31.73,-32.07,0,*72
1496343687.12,2920,21.25,74184.3,0.61,-31.85,-32.13,0,*7F
1496343688.36,2921,21.25,74188.0,0.59,-31.79,-32.07,0,*73
1496343689.62,2922,21.19,74190.0,0.59,-31.57,-31.91,0,*70
1496343690.88,2923,21.19,74190.0,0.59,-31.61,-31.95,0,*70
1496343692.06,2924,21.19,74186.5,0.61,-31.67,-32.01,0,*74
1496343693.27,2925,21.19,74186.5,0.61,-31.51,-32.01,0,*70
1496343694.53,2926,21.19,74188.0,0.59,-31.57,-31.91,0,*74
1496343695.76,2927,21.19,74192.0,0.61,-31.51,-31.91,0,*78
1496343696.99,2928,21.19,74190.3,0.61,-31.39,-31.85,0,*7C
1496343698.23,2929,21.19,74190.5,0.59,-31.61,-32.13,0,*77
1496343699.43,2930,21.19,74190.3,0.61,-31.67,-32.07,0,*77
1496343700.67,2931,21.19,74190.0,0.61,-31.51,-31.85,0,*7A
1496343701.84,2932,21.19,74190.8,0.57,-31.67,-32.13,0,*75
1496343703.08,2933,21.19,74200.0,0.59,-31.73,-32.13,0,*7F
1496343704.29,2934,21.19,74200.8,0.61,-31.57,-32.01,0,*76
1496343705.53,2935,21.19,74202.5,0.59,-31.45,-31.95,0,*71
1496343706.79,2936,21.25,74204.5,0.59,-31.57,-32.07,0,*79
1496343708.05,2937,21.19,74204.5,0.59,-31.73,-32.07,0,*7E
1496343709.32,2938,21.19,74204.3,0.59,-31.61,-32.19,0,*7D
1496343710.55,2939,21.19,74206.0,0.59,-31.79,-32.29,0,*76
1496343711.81,2940,21.19,74204.0,0.59,-31.61,-32.19,0,*72
1496343713.07,2941,21.25,74206.0,0.59,-31.61,-32.29,0,*70
1496343714.33,2942,21.19,74192.5,0.59,-31.57,-32.19,0,*75
1496343715.51,2943,21.19,74186.8,0.61,-31.67,-32.23,0,*75
1496343716.75,2944,21.25,74184.5,0.59,-31.91,-32.35,0,*77
1496343717.98,2945,21.19,74176.8,0.59,-31.79,-32.45,0,*77
1496343719.21,2946,21.19,74172.8,0.59,-31.91,-32.35,0,*75
1496343720.45,2947,21.19,74170.0,0.59,-31.91,-32.35,0,*74
1496343721.71,2948,21.19,74166.0,0.59,-31.95,-32.45,0,*78
1496343722.97,2949,21.19,74158.8,0.59,-31.61,-32.07,0,*74
1496343724.18,2950,21.19,74156.3,0.61,-31.33,-31.85,0,*79
1496343725.44,2951,21.19,74176.8,0.59,-31.39,-31.95,0,*78
1496343726.64,2952,21.19,74176.8,0.59,-31.79,-32.13,0,*72
1496343727.88,2953,21.19,74178.0,0.61,-31.57,-31.91,0,*7D
1496343729.11,2954,21.19,74194.5,0.61,-31.51,-31.85,0,*79
1496343730.32,2955,21.19,74198.3,0.61,-31.67,-31.85,0,*7D
1496343731.55,2956,21.19,74190.5,0.59,-31.61,-31.79,0,*70
1496343732.76,2957,21.19,74192.0,0.61,-31.67,-31.91,0,*7A
1496343733.99,2958,21.25,74192.3,0.61,-31.57,-31.85,0,*73
1496343735.23,2959,21.19,74194.5,0.63,-31.57,-32.01,0,*7F
1496343736.44,2960,21.19,74196.3,0.61,-31.67,-32.07,0,*72
1496343737.67,2961,21.19,74198.5,0.61,-31.39,-31.85,0,*71
1496343738.9,2962,21.19,74196.8,0.61,-31.51,-31.85,0,*7C
1496343740.14,2963,21.19,74200.3,0.63,-31.57,-32.01,0,*76
1496343741.4,2964,21.19,74202.0,0.59,-31.61,-31.91,0,*77
1496343742.64,2965,21.19,74200.3,0.59,-31.45,-31.95,0,*74
1496343743.84,2966,21.19,74192.3,0.61,-31.51,-32.01,0,*77
1496343745.08,2967,21.19,74200.0,0.61,-31.57,-32.07,0,*76
1496343746.32,2968,21.19,74200.0,0.61,-31.57,-32.07,0,*79
1496343747.53,2969,21.19,74198.0,0.61,-31.57,-32.01,0,*7E
1496343748.74,2970,21.19,74198.3,0.59,-31.45,-31.79,0,*72
1496343749.95,2971,21.19,74192.5,0.59,-31.29,-31.79,0,*79
1496343751.16,2972,21.19,74192.5,0.59,-31.45,-31.79,0,*70
1496343752.39,2973,21.19,74192.0,0.61,-31.51,-31.85,0,*7C
1496343753.65,2974,21.19,74194.8,0.59,-31.57,-31.91,0,*73
1496343754.88,2975,21.19,74194.8,0.61,-31.57,-31.85,0,*7C
1496343756.1,2976,21.19,74196.8,0.61,-31.45,-31.91,0,*79
1496343757.28,2977,21.19,74196.8,0.61,-31.67,-32.01,0,*72
1496343758.51,2978,21.19,74196.8,0.59,-31.73,-32.13,0,*70
1496343759.78,2979,21.19,74196.8,0.59,-31.61,-31.95,0,*7F
1496343761.04,2980,21.19,74188.8,0.59,-31.61,-31.95,0,*79
1496343762.22,2981,21.19,74194.3,0.61,-31.67,-32.13,0,*78
1496343763.46,2982,21.19,74196.8,0.61,-31.57,-31.91,0,*71
1496343764.72,2983,21.19,74202.3,0.59,-31.95,-32.29,0,*75
1496343765.98,2984,21.19,74200.3,0.59,-31.73,-32.07,0,*76
1496343767.24,2985,21.19,74204.3,0.59,-31.57,-31.95,0,*79
1496343768.45,2986,21.19,74200.3,0.57,-31.95,-32.35,0,*73
1496343769.68,2987,21.19,74200.8,0.59,-31.73,-32.13,0,*70
1496343770.95,2988,21.19,74200.3,0.59,-31.73,-32.19,0,*75
1496343772.21,2989,21.19,74204.8,0.59,-31.61,-31.95,0,*70
1496343773.42,2990,21.19,74206.5,0.61,-31.51,-32.01,0,*7E
1496343774.68,2991,21.19,74190.5,0.59,-31.61,-32.07,0,*71
1496343775.94,2992,21.19,74190.0,0.59,-31.91,-32.29,0,*71
1496343777.2,2993,21.19,74184.8,0.59,-31.95,-32.19,0,*77
1496343778.47,2994,21.19,74192.3,0.59,-31.95,-32.19,0,*70
1496343779.73,2995,21.19,74194.8,0.59,-31.95,-32.45,0,*78
1496343780.96,2996,21.19,74194.3,0.59,-31.79,-32.19,0,*70
1496343782.2,2997,21.19,74192.3,0.59,-31.79,-32.07,0,*7E
1496343783.46,2998,21.19,74192.8,0.59,-31.91,-32.29,0,*7B
1496343784.7,2999,21.19,74196.0,0.59,-32.19,-32.51,0,*76
1496343785.96,3000,21.19,74192.8,0.59,-31.95,-32.19,0,*75
1496343787.22,3001,21.19,74198.5,0.59,-31.73,-31.91,0,*7F
1496343788.46,3002,21.19,74196.3,0.61,-31.73,-31.85,0,*72
1496343789.72,3003,21.19,74196.5,0.59,-31.57,-31.91,0,*7B
1496343790.95,3004,21.19,74196.3,0.59,-31.79,-32.19,0,*73
1496343792.19,3005,21.19,74196.8,0.61,-31.51,-31.91,0,*70
1496343793.42,3006,21.19,74202.8,0.59,-31.91,-32.13,0,*7D
1496343794.62,3007,21.19,74204.3,0.61,-31.67,-31.85,0,*72
1496343795.86,3008,21.19,74202.5,0.59,-31.79,-31.95,0,*78
1496343797.07,3009,21.19,74202.3,0.61,-31.91,-32.01,0,*7A
1496343798.3,3010,21.19,74198.3,0.61,-31.57,-31.91,0,*72
1496343799.54,3011,21.19,74202.8,0.59,-31.95,-32.13,0,*7F
1496343800.8,3012,21.19,74202.8,0.59,-31.73,-32.07,0,*71
1496343802.06,3013,21.19,74202.5,0.59,-31.91,-32.19,0,*73
1496343803.27,3014,21.19,74198.3,0.61,-31.91,-32.01,0,*76
1496343804.5,3015,21.19,74200.0,0.59,-31.91,-32.13,0,*7F
1496343805.76,3016,21.19,74204.3,0.59,-31.57,-31.91,0,*7F
1496343806.99,3017,21.19,74202.8,0.61,-31.51,-31.85,0,*76
1496343808.25,3018,21.19,74198.5,0.59,-31.61,-31.91,0,*74
1496343809.52,3019,21.19,74198.5,0.59,-31.57,-31.95,0,*74
1496343810.78,3020,21.19,74198.8,0.59,-31.95,-32.29,0,*74
1496343812.03,3021,21.19,74196.5,0.59,-32.07,-32.29,0,*7D
1496343813.27,3022,21.19,74196.5,0.59,-31.95,-32.13,0,*7F
1496343814.45,3023,21.19,74194.3,0.57,-31.79,-32.13,0,*72
1496343815.66,3024,21.19,74196.5,0.57,-31.79,-32.19,0,*7F
1496343816.85,3025,21.19,74202.0,0.57,-32.01,-32.39,0,*70
1496343818.08,3026,21.19,74192.8,0.55,-31.95,-32.23,0,*74
1496343819.32,3027,21.19,74196.3,0.59,-31.73,-32.13,0,*72
1496343820.58,3028,21.19,74200.0,0.59,-32.07,-32.45,0,*7E
1496343821.79,3029,21.19,74200.3,0.57,-31.79,-31.95,0,*75
1496343823.03,3030,21.19,74200.8,0.57,-31.95,-32.19,0,*78
1496343824.24,3031,21.19,74202.8,0.57,-32.01,-32.19,0,*77
1496343825.48,3032,21.19,74200.3,0.57,-31.85,-32.19,0,*7B
1496343826.66,3033,21.19,74202.8,0.57,-31.79,-32.13,0,*73
1496343827.84,3034,21.19,74202.8,0.57,-31.79,-32.01,0,*77
1496343829.05,3035,21.19,74206.3,0.57,-31.85,-32.01,0,*75
1496343830.26,3036,21.19,74204.8,0.57,-31.45,-31.85,0,*75
1496343831.49,3037,21.19,74206.3,0.57,-31.61,-31.95,0,*73
1496343832.67,3038,21.19,74204.5,0.57,-31.79,-32.01,0,*7B
1496343833.88,3039,21.19,74204.8,0.57,-31.79,-31.95,0,*74
1496343835.07,3040,21.19,74206.5,0.57,-31.79,-32.01,0,*74
1496343836.24,3041,21.19,74202.8,0.57,-31.29,-31.67,0,*73
1496343837.42,3042,21.19,74202.0,0.57,-31.33,-31.67,0,*7B
1496343838.6,3043,21.19,74198.5,0.57,-31.79,-32.13,0,*74
1496343839.81,3044,21.19,74202.8,0.57,-32.01,-32.29,0,*76
1496343841.07,3045,21.19,74204.0,0.55,-31.85,-32.19,0,*79
1496343842.28,3046,21.19,74204.5,0.57,-31.85,-32.35,0,*76
1496343843.49,3047,21.19,74206.8,0.55,-32.01,-32.23,0,*7D
1496343844.67,3048,21.19,74206.3,0.57,-31.79,-32.01,0,*7C
1496343845.86,3049,21.19,74208.0,0.57,-32.01,-32.35,0,*76
1496343847.05,3050,21.19,74204.0,0.57,-32.01,-32.23,0,*79
1496343848.28,3051,21.19,74204.3,0.55,-31.85,-32.13,0,*76
1496343849.51,3052,21.19,74208.5,0.55,-31.85,-32.23,0,*76
1496343850.75,3053,21.19,74208.8,0.57,-31.85,-32.19,0,*7C
1496343851.99,3054,21.19,74206.5,0.55,-31.67,-31.95,0,*72
1496343853.2,3055,21.19,74206.3,0.55,-32.01,-32.39,0,*75
1496343854.44,3056,21.19,74208.3,0.55,-31.95,-32.23,0,*73
1496343855.64,3057,21.19,74208.3,0.55,-31.67,-32.01,0,*7F
1496343856.9,3058,21.19,74208.0,0.55,-31.51,-31.85,0,*7A
1496343858.1,3059,21.19,74206.3,0.55,-31.67,-32.01,0,*71
1496343859.36,3060,21.19,74206.3,0.55,-31.85,-32.19,0,*7E
1496343860.6,3061,21.19,74210.3,0.55,-31.95,-32.35,0,*70
1496343861.84,3062,21.19,74202.3,0.57,-31.85,-32.19,0,*7E
1496343863.05,3063,21.19,74208.8,0.55,-32.01,-32.35,0,*7C
1496343864.29,3064,21.19,74206.5,0.55,-31.95,-32.01,0,*72
1496343865.52,3065,21.19,74206.3,0.55,-31.85,-32.13,0,*71
1496343866.76,3066,21.19,74210.5,0.55,-31.95,-32.23,0,*70
1496343867.96,3067,21.19,74206.5,0.55,-31.79,-32.13,0,*70
1496343869.2,3068,21.19,74204.8,0.55,-31.85,-32.23,0,*7F
1496343870.41,3069,21.19,74206.0,0.55,-31.79,-32.01,0,*7D
1496343871.64,3070,21.19,74206.8,0.53,-31.85,-32.19,0,*79
1496343872.88,3071,21.19,74206.8,0.51,-31.85,-32.23,0,*73
1496343874.15,3072,21.19,74204.8,0.55,-31.61,-31.95,0,*70
1496343875.38,3073,21.19,74206.3,0.51,-31.67,-31.91,0,*77
1496343876.62,3074,21.19,74210.3,0.53,-31.85,-32.07,0,*72
1496343877.82,3075,21.19,74204.8,0.53,-31.91,-32.23,0,*70
1496343879.03,3076,21.19,74206.8,0.53,-31.73,-32.23,0,*7F
1496343880.26,3077,21.19,74206.8,0.53,-31.51,-31.85,0,*71
1496343881.47,3078,21.19,74208.3,0.53,-31.57,-32.01,0,*77
1496343882.68,3079,21.19,74208.8,0.53,-31.57,-32.01,0,*76
1496343883.88,3080,21.19,74214.0,0.53,-31.85,-32.23,0,*7F
1496343885.11,3081,21.19,74212.0,0.53,-31.91,-32.29,0,*71
1496343886.35,3082,21.19,74208.8,0.53,-31.73,-32.19,0,*7D
1496343887.59,3083,21.19,74208.0,0.53,-31.57,-32.07,0,*75
1496343888.8,3084,21.19,74204.8,0.53,-31.85,-32.23,0,*7B
1496343890.03,3085,21.19,74210.8,0.53,-31.73,-32.19,0,*7A
1496343891.24,3086,21.19,74206.5,0.53,-31.73,-32.23,0,*70
1496343892.48,3087,21.19,74208.0,0.53,-31.85,-32.19,0,*71
1496343893.69,3088,21.19,74200.0,0.53,-31.73,-32.23,0,*7E
1496343894.91,3089,21.13,74200.3,0.51,-32.01,-32.39,0,*70
1496343896.11,3090,21.19,74202.3,0.51,-32.23,-32.57,0,*70
1496343897.34,3091,21.19,74204.3,0.53,-31.91,-32.29,0,*70
1496343898.6,3092,21.19,74204.0,0.51,-31.73,-32.07,0,*71
1496343899.87,3093,21.19,74206.3,0.51,-31.85,-32.19,0,*76
1496343901.11,3094,21.19,74204.5,0.53,-31.57,-32.07,0,*73
1496343902.31,3095,21.19,74200.5,0.53,-31.33,-31.85,0,*79
1496343903.51,3096,21.19,74200.5,0.53,-31.33,-31.73,0,*73
1496343904.74,3097,21.19,74200.0,0.53,-31.51,-31.85,0,*7F
1496343905.95,3098,21.19,74202.5,0.53,-31.23,-31.67,0,*79
1496343907.18,3099,21.19,74206.3,0.53,-31.39,-31.91,0,*7A
1496343908.42,3100,21.19,74202.8,0.51,-31.67,-32.07,0,*7E
1496343909.62,3101,21.19,74204.3,0.53,-31.57,-32.01,0,*78
1496343910.86,3102,21.19,74206.3,0.51,-31.51,-32.01,0,*7F
1496343912.12,3103,21.19,74204.8,0.51,-31.73,-32.07,0,*78
1496343913.35,3104,21.19,74206.3,0.53,-31.39,-31.85,0,*7A
1496343914.56,3105,21.19,74202.5,0.53,-31.67,-32.07,0,*79
1496343915.79,3106,21.19,74204.3,0.55,-31.61,-32.01,0,*7C
1496343917.06,3107,21.19,74206.3,0.51,-31.57,-31.91,0,*76
1496343918.26,3108,21.19,74206.8,0.53,-31.33,-31.57,0,*73
1496343919.5,3109,21.19,74206.8,0.51,-31.67,-32.07,0,*77
1496343920.67,3110,21.19,74204.0,0.53,-31.67,-32.01,0,*7B
1496343921.94,3111,21.19,74200.5,0.51,-31.57,-32.07,0,*7D
1496343923.18,3112,21.19,74198.0,0.53,-31.73,-32.19,0,*75
1496343924.44,3113,21.19,74196.8,0.51,-31.85,-32.19,0,*7F
1496343925.71,3114,21.19,74198.0,0.51,-31.73,-32.07,0,*7E
1496343926.94,3115,21.19,74198.8,0.51,-31.51,-32.01,0,*79
1496343928.18,3116,21.19,74200.5,0.51,-31.67,-32.07,0,*79
1496343929.39,3117,21.19,74206.8,0.51,-31.67,-32.01,0,*7E
1496343930.65,3118,21.19,74206.3,0.51,-31.39,-31.91,0,*70
1496343931.85,3119,21.19,74202.3,0.53,-31.01,-31.39,0,*7A
1496343933.11,3120,21.19,74196.5,0.51,-31.23,-31.73,0,*7C
1496343934.31,3121,21.19,74194.5,0.53,-31.51,-32.01,0,*7C
1496343935.58,3122,21.19,74196.3,0.51,-31.73,-32.07,0,*7B
1496343936.79,3123,21.19,74198.5,0.53,-31.67,-32.07,0,*7D
1496343938.05,3124,21.19,74198.0,0.51,-31.73,-32.07,0,*7D
1496343939.29,3125,21.19,74198.5,0.51,-31.57,-32.01,0,*7C
1496343940.5,3126,21.19,74202.8,0.53,-31.57,-32.01,0,*7D
1496343941.74,3127,21.19,74206.3,0.51,-31.67,-32.07,0,*7B
1496343943.0,3128,21.19,74200.0,0.51,-31.51,-32.07,0,*71
1496343944.26,3129,21.19,74196.0,0.51,-31.57,-32.07,0,*76
1496343945.5,3130,21.19,74202.3,0.51,-31.51,-32.01,0,*7E
1496343946.73,3131,21.19,74202.5,0.51,-31.67,-32.07,0,*7C
1496343947.94,3132,21.19,74206.3,0.53,-31.57,-32.01,0,*78
1496343949.2,3133,21.19,74204.0,0.51,-31.51,-32.07,0,*7B
1496343950.44,3134,21.19,74200.3,0.51,-31.67,-32.07,0,*79
1496343951.68,3135,21.19,74198.0,0.51,-31.85,-32.39,0,*79
1496343952.89,3136,21.13,74196.3,0.53,-31.85,-32.39,0,*78
1496343954.16,3137,21.19,74196.3,0.51,-31.73,-32.07,0,*7F
1496343955.42,3138,21.13,74190.0,0.51,-31.51,-31.91,0,*7C
1496343956.65,3139,21.19,74198.5,0.51,-31.51,-32.01,0,*77
1496343957.86,3140,21.19,74190.8,0.53,-31.73,-32.23,0,*7B
1496343959.13,3141,21.13,74188.0,0.51,-31.85,-32.19,0,*78
1496343960.34,3142,21.19,74198.8,0.53,-31.67,-32.19,0,*75
1496343961.54,3143,21.19,74202.5,0.53,-31.51,-32.01,0,*78
1496343962.77,3144,21.19,74200.8,0.53,-31.39,-31.85,0,*7E
1496343963.97,3145,21.19,74198.0,0.53,-31.33,-31.73,0,*7C
1496343965.2,3146,21.19,74196.3,0.53,-31.57,-31.91,0,*71
1496343966.41,3147,21.19,74198.5,0.53,-31.67,-31.91,0,*73
1496343967.61,3148,21.19,74196.3,0.53,-31.57,-32.01,0,*75
1496343968.87,3149,21.13,74196.3,0.51,-31.39,-31.91,0,*74
1496343970.11,3150,21.13,74198.3,0.53,-31.73,-32.19,0,*73
1496343971.34,3151,21.19,74204.3,0.55,-31.85,-32.13,0,*77
1496343972.52,3152,21.13,74204.5,0.53,-31.67,-32.01,0,*7D
1496343973.78,3153,21.19,74204.0,0.51,-31.57,-31.91,0,*77
1496343974.99,3154,21.19,74208.3,0.53,-31.57,-32.01,0,*78
1496343976.23,3155,21.13,74200.5,0.51,-31.57,-32.01,0,*7B
1496343977.41,3156,21.19,74204.8,0.53,-31.67,-32.01,0,*79
1496343978.63,3157,21.19,74202.3,0.53,-31.51,-31.91,0,*77
1496343979.84,3158,21.13,74198.0,0.53,-31.67,-32.19,0,*7E
1496343981.05,3159,21.19,74200.3,0.53,-31.91,-32.39,0,*74
1496343982.26,3160,21.19,74202.0,0.51,-31.67,-32.01,0,*7E
1496343983.49,3161,21.13,74200.0,0.51,-31.67,-32.07,0,*79
1496343984.76,3162,21.13,74200.3,0.51,-31.73,-32.19,0,*70
1496343986.0,3163,21.13,74198.0,0.51,-31.91,-32.23,0,*74
1496343987.2,3164,21.13,74198.0,0.53,-31.91,-32.23,0,*71
1496343988.44,3165,21.19,74198.0,0.51,-31.85,-32.23,0,*77
1496343989.67,3166,21.13,74198.3,0.53,-31.91,-32.29,0,*79
1496343990.9,3167,21.13,74196.5,0.53,-31.51,-31.91,0,*74
1496343992.13,3168,21.13,74194.3,0.53,-31.57,-31.91,0,*7D
1496343993.36,3169,21.19,74202.8,0.53,-31.91,-32.29,0,*76
1496343994.62,3170,21.13,74204.5,0.51,-32.07,-32.29,0,*70
1496343995.86,3171,21.13,74200.0,0.51,-31.67,-31.91,0,*74
1496343997.08,3172,21.19,74202.0,0.53,-31.39,-31.73,0,*72
1496343998.26,3173,21.13,74196.3,0.53,-31.33,-31.67,0,*7C
1496343999.49,3174,21.13,74196.5,0.53,-31.39,-31.73,0,*74
1496344000.69,3175,21.19,74200.0,0.53,-31.57,-32.01,0,*7B
1496344001.93,3176,21.19,74202.0,0.55,-31.61,-32.01,0,*7B
1496344003.16,3177,21.13,74206.3,0.53,-31.91,-32.07,0,*75
1496344004.4,3178,21.19,74206.8,0.53,-31.57,-31.91,0,*7C
1496344005.63,3179,21.13,74202.5,0.53,-31.57,-31.85,0,*78
1496344006.86,3180,21.19,74206.0,0.53,-31.73,-31.91,0,*7D
1496344008.1,3181,21.13,74204.8,0.53,-31.85,-32.07,0,*79
1496344009.28,3182,21.13,74208.3,0.53,-31.67,-32.01,0,*70
1496344010.51,3183,21.19,74210.0,0.53,-31.73,-32.19,0,*7D
1496344011.72,3184,21.13,74208.0,0.53,-31.33,-31.91,0,*7D
1496344012.95,3185,21.19,74210.0,0.53,-31.51,-31.91,0,*78
1496344014.16,3186,21.13,74202.8,0.53,-31.57,-32.01,0,*77
1496344015.36,3187,21.19,74204.8,0.53,-31.67,-32.07,0,*73
1496344016.57,3188,21.13,74200.3,0.53,-31.73,-32.01,0,*7F
1496344017.8,3189,21.13,74204.8,0.53,-31.91,-32.29,0,*78
1496344019.03,3190,21.13,74204.0,0.53,-31.51,-31.73,0,*70
1496344020.23,3191,21.19,74206.3,0.53,-31.67,-31.91,0,*78
1496344021.46,3192,21.13,74206.5,0.53,-31.57,-31.91,0,*78
1496344022.7,3193,21.13,74210.0,0.53,-31.73,-32.07,0,*73
1496344023.91,3194,21.13,74208.3,0.53,-32.01,-32.29,0,*7E
1496344025.15,3195,21.13,74206.0,0.53,-31.85,-32.07,0,*7C
1496344026.38,3196,21.13,74208.5,0.53,-31.57,-31.91,0,*7C
1496344027.62,3197,21.13,74206.0,0.53,-31.73,-32.19,0,*78
1496344028.82,3198,21.19,74210.8,0.53,-31.67,-32.07,0,*7D
1496344030.0,3199,21.13,74208.3,0.53,-31.67,-32.01,0,*7A
1496344031.21,3200,21.13,74210.3,0.55,-31.79,-32.01,0,*70
1496344032.45,3201,21.13,74208.5,0.53,-31.73,-32.19,0,*74
1496344033.68,3202,21.13,74206.8,0.53,-31.57,-31.91,0,*72
1496344034.92,3203,21.13,74212.8,0.53,-31.73,-32.07,0,*79
1496344036.15,3204,21.19,74212.3,0.55,-31.61,-32.13,0,*7E
1496344037.34,3205,21.13,74212.0,0.53,-32.01,-32.39,0,*74
1496344038.55,3206,21.13,74214.5,0.53,-31.85,-32.23,0,*73
1496344039.78,3207,21.13,74212.0,0.51,-31.91,-32.23,0,*75
1496344041.02,3208,21.13,74208.0,0.51,-32.01,-32.29,0,*7A
1496344042.25,3209,21.13,74212.8,0.53,-31.91,-32.29,0,*73
1496344043.51,3210,21.13,74210.0,0.51,-31.51,-31.91,0,*75
1496344044.75,3211,21.13,74208.3,0.51,-31.91,-32.39,0,*79
1496344045.99,3212,21.13,74206.5,0.51,-31.67,-32.19,0,*71
1496344047.2,3213,21.13,74200.0,0.53,-31.85,-32.23,0,*77
1496344048.39,3214,21.13,74198.3,0.53,-32.01,-32.39,0,*74
1496344049.56,3215,21.13,74196.0,0.53,-32.23,-32.57,0,*7D
1496344050.82,3216,21.13,74198.3,0.51,-32.19,-32.63,0,*72
1496344052.05,3217,21.13,74196.8,0.53,-31.91,-32.45,0,*76
1496344053.29,3218,21.13,74200.5,0.51,-31.85,-32.39,0,*75
1496344054.53,3219,21.13,74202.5,0.51,-31.85,-32.23,0,*7F
1496344055.8,3220,21.13,74200.0,0.51,-31.85,-32.19,0,*7C
1496344057.0,3221,21.13,74200.8,0.53,-31.67,-31.91,0,*70
1496344058.26,3222,21.13,74198.3,0.51,-31.39,-31.73,0,*76
1496344059.52,3223,21.13,74202.3,0.51,-31.57,-31.91,0,*73
1496344060.76,3224,21.13,74202.3,0.53,-31.85,-32.07,0,*75
1496344061.97,3225,21.13,74206.0,0.53,-32.07,-32.23,0,*7B
1496344063.17,3226,21.13,74206.3,0.53,-31.91,-32.23,0,*74
1496344064.44,3227,21.13,74210.5,0.51,-31.91,-32.19,0,*7E
1496344065.67,3228,21.13,74208.8,0.53,-31.51,-31.91,0,*7C
1496344066.87,3229,21.13,74210.5,0.53,-31.57,-32.01,0,*71
1496344068.08,3230,21.13,74212.0,0.53,-31.57,-32.01,0,*79
1496344069.31,3231,21.13,74216.3,0.53,-31.39,-31.73,0,*76
1496344070.54,3232,21.13,74214.0,0.51,-31.33,-31.85,0,*74
1496344071.8,3233,21.13,74214.3,0.51,-31.39,-31.91,0,*7A
1496344073.01,3234,21.13,74208.3,0.53,-31.57,-32.01,0,*7D
1496344074.24,3235,21.13,74204.5,0.51,-31.67,-32.07,0,*7B
1496344075.45,3236,21.13,74204.3,0.53,-31.51,-32.01,0,*79
1496344076.68,3237,21.13,74204.5,0.51,-31.67,-32.07,0,*79
1496344077.91,3238,21.13,74204.3,0.53,-31.39,-31.73,0,*7F
1496344079.15,3239,21.13,74206.5,0.53,-31.73,-32.19,0,*7F
1496344080.35,3240,21.13,74212.3,0.51,-31.67,-32.01,0,*7F
1496344081.56,3241,21.13,74208.5,0.51,-31.67,-32.01,0,*7E
1496344082.76,3242,21.13,74206.0,0.53,-31.33,-31.73,0,*78
1496344084.0,3243,21.13,74210.5,0.53,-31.73,-32.07,0,*7D
1496344085.21,3244,21.13,74210.3,0.53,-31.73,-32.01,0,*7C
1496344086.44,3245,21.13,74210.3,0.51,-31.73,-32.01,0,*7F
1496344087.67,3246,21.13,74214.8,0.53,-31.51,-31.91,0,*74
1496344088.88,3247,21.13,74222.5,0.51,-31.33,-31.67,0,*7A
1496344090.09,3248,21.13,74216.3,0.51,-31.33,-31.67,0,*75
1496344091.32,3249,21.13,74208.8,0.51,-31.33,-31.91,0,*7D
1496344092.53,3250,21.13,74214.0,0.53,-31.33,-31.85,0,*72
1496344093.77,3251,21.13,74204.8,0.53,-31.57,-32.07,0,*78
1496344094.97,3252,21.13,74204.5,0.53,-31.67,-32.19,0,*77
1496344096.18,3253,21.13,74208.5,0.53,-31.51,-32.01,0,*7A
1496344097.38,3254,21.13,74208.5,0.53,-31.51,-32.01,0,*7D
1496344098.64,3255,21.13,74210.0,0.51,-31.57,-32.19,0,*71
1496344099.85,3256,21.13,74206.8,0.53,-31.67,-32.19,0,*73
1496344101.08,3257,21.13,74206.0,0.53,-31.39,-31.85,0,*7F
1496344102.31,3258,21.13,74208.5,0.53,-31.39,-31.91,0,*75
1496344103.52,3259,21.13,74206.0,0.53,-31.57,-32.01,0,*76
1496344104.78,3260,21.13,74208.5,0.51,-31.73,-32.19,0,*71
1496344105.99,3261,21.13,74204.5,0.53,-31.67,-32.07,0,*78
1496344107.2,3262,21.13,74202.3,0.57,-31.95,-32.35,0,*73
1496344108.41,3263,21.13,74206.0,0.53,-31.91,-32.39,0,*7E